Date;H [cm]
01.01.1956;64
02.01.1956;68
03.01.1956;68
04.01.1956;69
05.01.1956;70
06.01.1956;71
07.01.1956;70
08.01.1956;70
09.01.1956;70
10.01.1956;69
11.01.1956;69
12.01.1956;68
13.01.1956;68
14.01.1956;68
15.01.1956;68
16.01.1956;66
17.01.1956;67
18.01.1956;68
19.01.1956;68
20.01.1956;68
21.01.1956;68
22.01.1956;68
23.01.1956;68
24.01.1956;68
25.01.1956;68
26.01.1956;68
27.01.1956;69
28.01.1956;69
29.01.1956;70
30.01.1956;72
31.01.1956;70
01.02.1956;74
02.02.1956;73
03.02.1956;72
04.02.1956;69
05.02.1956;66
06.02.1956;66
07.02.1956;66
08.02.1956;66
09.02.1956;66
10.02.1956;70
11.02.1956;68
12.02.1956;70
13.02.1956;66
14.02.1956;66
15.02.1956;68
16.02.1956;65
17.02.1956;64
18.02.1956;64
19.02.1956;64
20.02.1956;64
21.02.1956;64
22.02.1956;64
23.02.1956;66
24.02.1956;66
25.02.1956;66
26.02.1956;66
27.02.1956;66
28.02.1956;66
29.02.1956;64
01.03.1956;58
02.03.1956;58
03.03.1956;56
04.03.1956;56
05.03.1956;52
06.03.1956;56
07.03.1956;54
08.03.1956;56
09.03.1956;56
10.03.1956;56
11.03.1956;54
12.03.1956;55
13.03.1956;56
14.03.1956;54
15.03.1956;54
16.03.1956;55
17.03.1956;54
18.03.1956;54
19.03.1956;55
20.03.1956;54
21.03.1956;54
22.03.1956;54
23.03.1956;53
24.03.1956;52
25.03.1956;52
26.03.1956;52
27.03.1956;52
28.03.1956;53
29.03.1956;52
30.03.1956;52
31.03.1956;52
01.04.1956;52
02.04.1956;54
03.04.1956;54
04.04.1956;56
05.04.1956;56
06.04.1956;54
07.04.1956;54
08.04.1956;55
09.04.1956;54
10.04.1956;54
11.04.1956;54
12.04.1956;54
13.04.1956;52
14.04.1956;54
15.04.1956;56
16.04.1956;58
17.04.1956;57
18.04.1956;58
19.04.1956;56
20.04.1956;82
21.04.1956;71
22.04.1956;71
23.04.1956;90
24.04.1956;128
25.04.1956;178
26.04.1956;262
27.04.1956;368
28.04.1956;469
29.04.1956;516
30.04.1956;501
01.05.1956;488
02.05.1956;498
03.05.1956;490
04.05.1956;480
05.05.1956;439
06.05.1956;402
07.05.1956;359
08.05.1956;332
09.05.1956;301
10.05.1956;277
11.05.1956;254
12.05.1956;228
13.05.1956;208
14.05.1956;200
15.05.1956;198
16.05.1956;192
17.05.1956;182
18.05.1956;182
19.05.1956;180
20.05.1956;172
21.05.1956;171
22.05.1956;177
23.05.1956;173
24.05.1956;170
25.05.1956;168
26.05.1956;166
27.05.1956;166
28.05.1956;164
29.05.1956;162
30.05.1956;159
31.05.1956;158
01.06.1956;159
02.06.1956;154
03.06.1956;154
04.06.1956;156
05.06.1956;156
06.06.1956;148
07.06.1956;152
08.06.1956;156
09.06.1956;148
10.06.1956;146
11.06.1956;150
12.06.1956;148
13.06.1956;154
14.06.1956;144
15.06.1956;146
16.06.1956;152
17.06.1956;142
18.06.1956;139
19.06.1956;144
20.06.1956;140
21.06.1956;136
22.06.1956;142
23.06.1956;136
24.06.1956;134
25.06.1956;130
26.06.1956;132
27.06.1956;132
28.06.1956;129
29.06.1956;135
30.06.1956;135
01.07.1956;134
02.07.1956;122
03.07.1956;124
04.07.1956;124
05.07.1956;122
06.07.1956;122
07.07.1956;122
08.07.1956;118
09.07.1956;118
10.07.1956;114
11.07.1956;112
12.07.1956;110
13.07.1956;116
14.07.1956;113
15.07.1956;115
16.07.1956;112
17.07.1956;108
18.07.1956;106
19.07.1956;107
20.07.1956;108
21.07.1956;106
22.07.1956;102
23.07.1956;102
24.07.1956;103
25.07.1956;104
26.07.1956;102
27.07.1956;107
28.07.1956;104
29.07.1956;106
30.07.1956;104
31.07.1956;104
01.08.1956;104
02.08.1956;104
03.08.1956;104
04.08.1956;100
05.08.1956;96
06.08.1956;100
07.08.1956;98
08.08.1956;94
09.08.1956;94
10.08.1956;88
11.08.1956;90
12.08.1956;92
13.08.1956;92
14.08.1956;94
15.08.1956;103
16.08.1956;92
17.08.1956;90
18.08.1956;90
19.08.1956;92
20.08.1956;94
21.08.1956;89
22.08.1956;90
23.08.1956;92
24.08.1956;88
25.08.1956;94
26.08.1956;102
27.08.1956;106
28.08.1956;94
29.08.1956;94
30.08.1956;88
31.08.1956;106
01.09.1956;114
02.09.1956;112
03.09.1956;106
04.09.1956;106
05.09.1956;98
06.09.1956;96
07.09.1956;94
08.09.1956;88
09.09.1956;86
10.09.1956;85
11.09.1956;88
12.09.1956;90
13.09.1956;91
14.09.1956;80
15.09.1956;84
16.09.1956;78
17.09.1956;78
18.09.1956;76
19.09.1956;76
20.09.1956;78
21.09.1956;74
22.09.1956;72
23.09.1956;71
24.09.1956;71
25.09.1956;71
26.09.1956;69
27.09.1956;70
28.09.1956;76
29.09.1956;76
30.09.1956;72
01.10.1956;70
02.10.1956;69
03.10.1956;69
04.10.1956;71
05.10.1956;75
06.10.1956;74
07.10.1956;76
08.10.1956;101
09.10.1956;112
10.10.1956;120
11.10.1956;132
12.10.1956;132
13.10.1956;132
14.10.1956;136
15.10.1956;145
16.10.1956;151
17.10.1956;146
18.10.1956;140
19.10.1956;136
20.10.1956;129
21.10.1956;123
22.10.1956;119
23.10.1956;116
24.10.1956;115
25.10.1956;124
26.10.1956;127
27.10.1956;128
28.10.1956;124
29.10.1956;122
30.10.1956;103
31.10.1956;104
01.11.1956;97
02.11.1956;93
03.11.1956;96
04.11.1956;98
05.11.1956;101
06.11.1956;100
07.11.1956;86
08.11.1956;94
09.11.1956;98
10.11.1956;101
11.11.1956;98
12.11.1956;100
13.11.1956;98
14.11.1956;99
15.11.1956;102
16.11.1956;106
17.11.1956;108
18.11.1956;108
19.11.1956;106
20.11.1956;106
21.11.1956;104
22.11.1956;104
23.11.1956;104
24.11.1956;101
25.11.1956;102
26.11.1956;100
27.11.1956;96
28.11.1956;98
29.11.1956;98
30.11.1956;98
01.12.1956;96
02.12.1956;96
03.12.1956;100
04.12.1956;93
05.12.1956;94
06.12.1956;96
07.12.1956;96
08.12.1956;95
09.12.1956;96
10.12.1956;96
11.12.1956;96
12.12.1956;98
13.12.1956;108
14.12.1956;119
15.12.1956;122
16.12.1956;132
17.12.1956;197
18.12.1956;278
19.12.1956;302
20.12.1956;305
21.12.1956;265
22.12.1956;228
23.12.1956;203
24.12.1956;184
25.12.1956;170
26.12.1956;158
27.12.1956;146
28.12.1956;132
29.12.1956;130
30.12.1956;128
31.12.1956;124
01.01.1957;118
02.01.1957;106
03.01.1957;96
04.01.1957;100
05.01.1957;95
06.01.1957;86
07.01.1957;86
08.01.1957;85
09.01.1957;92
10.01.1957;110
11.01.1957;105
12.01.1957;96
13.01.1957;94
14.01.1957;92
15.01.1957;90
16.01.1957;86
17.01.1957;84
18.01.1957;87
19.01.1957;85
20.01.1957;82
21.01.1957;82
22.01.1957;87
23.01.1957;98
24.01.1957;99
25.01.1957;93
26.01.1957;92
27.01.1957;89
28.01.1957;90
29.01.1957;88
30.01.1957;86
31.01.1957;86
01.02.1957;86
02.02.1957;86
03.02.1957;88
04.02.1957;85
05.02.1957;90
06.02.1957;104
07.02.1957;144
08.02.1957;202
09.02.1957;142
10.02.1957;126
11.02.1957;118
12.02.1957;108
13.02.1957;102
14.02.1957;98
15.02.1957;98
16.02.1957;101
17.02.1957;106
18.02.1957;113
19.02.1957;118
20.02.1957;116
21.02.1957;114
22.02.1957;112
23.02.1957;110
24.02.1957;109
25.02.1957;110
26.02.1957;106
27.02.1957;106
28.02.1957;108
01.03.1957;108
02.03.1957;104
03.03.1957;102
04.03.1957;99
05.03.1957;98
06.03.1957;96
07.03.1957;94
08.03.1957;94
09.03.1957;94
10.03.1957;91
11.03.1957;91
12.03.1957;90
13.03.1957;88
14.03.1957;87
15.03.1957;86
16.03.1957;85
17.03.1957;86
18.03.1957;88
19.03.1957;84
20.03.1957;85
21.03.1957;86
22.03.1957;86
23.03.1957;86
24.03.1957;85
25.03.1957;82
26.03.1957;79
27.03.1957;81
28.03.1957;82
29.03.1957;78
30.03.1957;77
31.03.1957;79
01.04.1957;85
02.04.1957;95
03.04.1957;126
04.04.1957;162
05.04.1957;299
06.04.1957;488
07.04.1957;461
08.04.1957;381
09.04.1957;268
10.04.1957;250
11.04.1957;218
12.04.1957;191
13.04.1957;175
14.04.1957;164
15.04.1957;149
16.04.1957;145
17.04.1957;138
18.04.1957;141
19.04.1957;153
20.04.1957;183
21.04.1957;231
22.04.1957;251
23.04.1957;272
24.04.1957;311
25.04.1957;340
26.04.1957;376
27.04.1957;389
28.04.1957;376
29.04.1957;378
30.04.1957;356
01.05.1957;374
02.05.1957;374
03.05.1957;317
04.05.1957;260
05.05.1957;237
06.05.1957;213
07.05.1957;199
08.05.1957;194
09.05.1957;216
10.05.1957;210
11.05.1957;196
12.05.1957;182
13.05.1957;175
14.05.1957;168
15.05.1957;164
16.05.1957;148
17.05.1957;148
18.05.1957;140
19.05.1957;136
20.05.1957;134
21.05.1957;133
22.05.1957;156
23.05.1957;145
24.05.1957;130
25.05.1957;124
26.05.1957;124
27.05.1957;123
28.05.1957;122
29.05.1957;119
30.05.1957;118
31.05.1957;114
01.06.1957;118
02.06.1957;108
03.06.1957;114
04.06.1957;115
05.06.1957;115
06.06.1957;117
07.06.1957;125
08.06.1957;122
09.06.1957;116
10.06.1957;118
11.06.1957;116
12.06.1957;113
13.06.1957;110
14.06.1957;92
15.06.1957;104
16.06.1957;97
17.06.1957;96
18.06.1957;95
19.06.1957;97
20.06.1957;94
21.06.1957;90
22.06.1957;102
23.06.1957;98
24.06.1957;98
25.06.1957;94
26.06.1957;94
27.06.1957;94
28.06.1957;96
29.06.1957;91
30.06.1957;90
01.07.1957;88
02.07.1957;96
03.07.1957;90
04.07.1957;85
05.07.1957;86
06.07.1957;84
07.07.1957;83
08.07.1957;82
09.07.1957;82
10.07.1957;84
11.07.1957;82
12.07.1957;82
13.07.1957;81
14.07.1957;82
15.07.1957;82
16.07.1957;88
17.07.1957;82
18.07.1957;80
19.07.1957;85
20.07.1957;88
21.07.1957;78
22.07.1957;78
23.07.1957;78
24.07.1957;78
25.07.1957;73
26.07.1957;76
27.07.1957;76
28.07.1957;89
29.07.1957;88
30.07.1957;98
31.07.1957;92
01.08.1957;86
02.08.1957;86
03.08.1957;83
04.08.1957;74
05.08.1957;76
06.08.1957;77
07.08.1957;77
08.08.1957;75
09.08.1957;77
10.08.1957;84
11.08.1957;84
12.08.1957;72
13.08.1957;76
14.08.1957;104
15.08.1957;94
16.08.1957;102
17.08.1957;102
18.08.1957;98
19.08.1957;98
20.08.1957;94
21.08.1957;114
22.08.1957;128
23.08.1957;122
24.08.1957;124
25.08.1957;125
26.08.1957;129
27.08.1957;124
28.08.1957;119
29.08.1957;115
30.08.1957;106
31.08.1957;128
01.09.1957;181
02.09.1957;172
03.09.1957;174
04.09.1957;160
05.09.1957;148
06.09.1957;138
07.09.1957;126
08.09.1957;124
09.09.1957;113
10.09.1957;118
11.09.1957;113
12.09.1957;113
13.09.1957;107
14.09.1957;107
15.09.1957;104
16.09.1957;108
17.09.1957;103
18.09.1957;98
19.09.1957;124
20.09.1957;134
21.09.1957;126
22.09.1957;127
23.09.1957;124
24.09.1957;116
25.09.1957;125
26.09.1957;209
27.09.1957;316
28.09.1957;322
29.09.1957;298
30.09.1957;271
01.10.1957;236
02.10.1957;225
03.10.1957;204
04.10.1957;197
05.10.1957;185
06.10.1957;185
07.10.1957;191
08.10.1957;180
09.10.1957;181
10.10.1957;174
11.10.1957;169
12.10.1957;162
13.10.1957;155
14.10.1957;144
15.10.1957;147
16.10.1957;158
17.10.1957;149
18.10.1957;140
19.10.1957;151
20.10.1957;150
21.10.1957;152
22.10.1957;147
23.10.1957;149
24.10.1957;142
25.10.1957;136
26.10.1957;137
27.10.1957;138
28.10.1957;137
29.10.1957;137
30.10.1957;143
31.10.1957;166
01.11.1957;171
02.11.1957;176
03.11.1957;176
04.11.1957;162
05.11.1957;158
06.11.1957;155
07.11.1957;156
08.11.1957;152
09.11.1957;145
10.11.1957;145
11.11.1957;145
12.11.1957;140
13.11.1957;136
14.11.1957;129
15.11.1957;129
16.11.1957;123
17.11.1957;120
18.11.1957;118
19.11.1957;118
20.11.1957;118
21.11.1957;117
22.11.1957;118
23.11.1957;117
24.11.1957;116
25.11.1957;119
26.11.1957;112
27.11.1957;116
28.11.1957;111
29.11.1957;108
30.11.1957;96
01.12.1957;91
02.12.1957;93
03.12.1957;91
04.12.1957;97
05.12.1957;92
06.12.1957;96
07.12.1957;98
08.12.1957;96
09.12.1957;101
10.12.1957;91
11.12.1957;89
12.12.1957;89
13.12.1957;90
14.12.1957;82
15.12.1957;83
16.12.1957;88
17.12.1957;88
18.12.1957;85
19.12.1957;86
20.12.1957;86
21.12.1957;92
22.12.1957;117
23.12.1957;136
24.12.1957;149
25.12.1957;142
26.12.1957;139
27.12.1957;145
28.12.1957;153
29.12.1957;166
30.12.1957;138
31.12.1957;138
01.01.1958;120
02.01.1958;115
03.01.1958;113
04.01.1958;110
05.01.1958;106
06.01.1958;102
07.01.1958;98
08.01.1958;86
09.01.1958;85
10.01.1958;82
11.01.1958;84
12.01.1958;83
13.01.1958;85
14.01.1958;91
15.01.1958;104
16.01.1958;100
17.01.1958;92
18.01.1958;82
19.01.1958;87
20.01.1958;92
21.01.1958;87
22.01.1958;91
23.01.1958;88
24.01.1958;92
25.01.1958;92
26.01.1958;88
27.01.1958;88
28.01.1958;88
29.01.1958;88
30.01.1958;84
31.01.1958;84
01.02.1958;83
02.02.1958;80
03.02.1958;81
04.02.1958;82
05.02.1958;82
06.02.1958;81
07.02.1958;82
08.02.1958;84
09.02.1958;82
10.02.1958;83
11.02.1958;85
12.02.1958;85
13.02.1958;84
14.02.1958;88
15.02.1958;83
16.02.1958;83
17.02.1958;79
18.02.1958;76
19.02.1958;80
20.02.1958;83
21.02.1958;82
22.02.1958;80
23.02.1958;78
24.02.1958;77
25.02.1958;78
26.02.1958;84
27.02.1958;84
28.02.1958;75
01.03.1958;85
02.03.1958;82
03.03.1958;82
04.03.1958;79
05.03.1958;79
06.03.1958;80
07.03.1958;82
08.03.1958;80
09.03.1958;73
10.03.1958;76
11.03.1958;73
12.03.1958;80
13.03.1958;76
14.03.1958;84
15.03.1958;78
16.03.1958;76
17.03.1958;76
18.03.1958;79
19.03.1958;85
20.03.1958;80
21.03.1958;74
22.03.1958;72
23.03.1958;71
24.03.1958;71
25.03.1958;84
26.03.1958;81
27.03.1958;73
28.03.1958;80
29.03.1958;70
30.03.1958;67
31.03.1958;70
01.04.1958;72
02.04.1958;66
03.04.1958;72
04.04.1958;72
05.04.1958;72
06.04.1958;79
07.04.1958;61
08.04.1958;64
09.04.1958;71
10.04.1958;64
11.04.1958;67
12.04.1958;70
13.04.1958;76
14.04.1958;74
15.04.1958;85
16.04.1958;124
17.04.1958;173
18.04.1958;267
19.04.1958;318
20.04.1958;366
21.04.1958;397
22.04.1958;363
23.04.1958;329
24.04.1958;316
25.04.1958;309
26.04.1958;295
27.04.1958;282
28.04.1958;272
29.04.1958;278
30.04.1958;278
01.05.1958;267
02.05.1958;258
03.05.1958;243
04.05.1958;280
05.05.1958;294
06.05.1958;290
07.05.1958;264
08.05.1958;260
09.05.1958;226
10.05.1958;204
11.05.1958;208
12.05.1958;212
13.05.1958;202
14.05.1958;196
15.05.1958;190
16.05.1958;186
17.05.1958;182
18.05.1958;185
19.05.1958;180
20.05.1958;169
21.05.1958;167
22.05.1958;164
23.05.1958;164
24.05.1958;162
25.05.1958;156
26.05.1958;153
27.05.1958;151
28.05.1958;144
29.05.1958;151
30.05.1958;153
31.05.1958;147
01.06.1958;144
02.06.1958;143
03.06.1958;138
04.06.1958;140
05.06.1958;142
06.06.1958;142
07.06.1958;135
08.06.1958;132
09.06.1958;137
10.06.1958;136
11.06.1958;131
12.06.1958;132
13.06.1958;130
14.06.1958;130
15.06.1958;123
16.06.1958;124
17.06.1958;122
18.06.1958;124
19.06.1958;123
20.06.1958;122
21.06.1958;118
22.06.1958;123
23.06.1958;122
24.06.1958;118
25.06.1958;116
26.06.1958;115
27.06.1958;114
28.06.1958;117
29.06.1958;117
30.06.1958;113
01.07.1958;108
02.07.1958;111
03.07.1958;108
04.07.1958;109
05.07.1958;105
06.07.1958;108
07.07.1958;104
08.07.1958;100
09.07.1958;100
10.07.1958;102
11.07.1958;105
12.07.1958;104
13.07.1958;103
14.07.1958;105
15.07.1958;105
16.07.1958;102
17.07.1958;98
18.07.1958;100
19.07.1958;86
20.07.1958;84
21.07.1958;89
22.07.1958;91
23.07.1958;94
24.07.1958;96
25.07.1958;91
26.07.1958;84
27.07.1958;80
28.07.1958;87
29.07.1958;87
30.07.1958;88
31.07.1958;88
01.08.1958;92
02.08.1958;92
03.08.1958;93
04.08.1958;96
05.08.1958;94
06.08.1958;88
07.08.1958;91
08.08.1958;106
09.08.1958;108
10.08.1958;101
11.08.1958;105
12.08.1958;102
13.08.1958;92
14.08.1958;88
15.08.1958;87
16.08.1958;88
17.08.1958;88
18.08.1958;84
19.08.1958;87
20.08.1958;81
21.08.1958;84
22.08.1958;81
23.08.1958;84
24.08.1958;85
25.08.1958;81
26.08.1958;84
27.08.1958;82
28.08.1958;82
29.08.1958;81
30.08.1958;75
31.08.1958;73
01.09.1958;76
02.09.1958;64
03.09.1958;64
04.09.1958;58
05.09.1958;67
06.09.1958;65
07.09.1958;65
08.09.1958;68
09.09.1958;68
10.09.1958;65
11.09.1958;62
12.09.1958;51
13.09.1958;49
14.09.1958;46
15.09.1958;45
16.09.1958;48
17.09.1958;50
18.09.1958;46
19.09.1958;50
20.09.1958;50
21.09.1958;55
22.09.1958;56
23.09.1958;48
24.09.1958;46
25.09.1958;49
26.09.1958;50
27.09.1958;42
28.09.1958;42
29.09.1958;46
30.09.1958;46
01.10.1958;47
02.10.1958;50
03.10.1958;47
04.10.1958;48
05.10.1958;58
06.10.1958;49
07.10.1958;50
08.10.1958;46
09.10.1958;50
10.10.1958;46
11.10.1958;48
12.10.1958;52
13.10.1958;55
14.10.1958;49
15.10.1958;48
16.10.1958;48
17.10.1958;48
18.10.1958;54
19.10.1958;77
20.10.1958;72
21.10.1958;81
22.10.1958;74
23.10.1958;75
24.10.1958;76
25.10.1958;87
26.10.1958;84
27.10.1958;84
28.10.1958;96
29.10.1958;89
30.10.1958;83
31.10.1958;90
01.11.1958;77
02.11.1958;74
03.11.1958;70
04.11.1958;85
05.11.1958;86
06.11.1958;80
07.11.1958;76
08.11.1958;73
09.11.1958;74
10.11.1958;76
11.11.1958;82
12.11.1958;84
13.11.1958;86
14.11.1958;90
15.11.1958;88
16.11.1958;92
17.11.1958;86
18.11.1958;86
19.11.1958;72
20.11.1958;67
21.11.1958;74
22.11.1958;79
23.11.1958;66
24.11.1958;77
25.11.1958;75
26.11.1958;74
27.11.1958;83
28.11.1958;77
29.11.1958;67
30.11.1958;80
01.12.1958;92
02.12.1958;83
03.12.1958;82
04.12.1958;86
05.12.1958;88
06.12.1958;86
07.12.1958;83
08.12.1958;86
09.12.1958;86
10.12.1958;86
11.12.1958;68
12.12.1958;69
13.12.1958;73
14.12.1958;61
15.12.1958;86
16.12.1958;69
17.12.1958;68
18.12.1958;69
19.12.1958;66
20.12.1958;81
21.12.1958;67
22.12.1958;68
23.12.1958;67
24.12.1958;82
25.12.1958;80
26.12.1958;81
27.12.1958;80
28.12.1958;77
29.12.1958;68
30.12.1958;63
31.12.1958;69
01.01.1959;71
02.01.1959;75
03.01.1959;80
04.01.1959;80
05.01.1959;82
06.01.1959;83
07.01.1959;81
08.01.1959;81
09.01.1959;74
10.01.1959;80
11.01.1959;81
12.01.1959;74
13.01.1959;81
14.01.1959;73
15.01.1959;73
16.01.1959;80
17.01.1959;79
18.01.1959;80
19.01.1959;80
20.01.1959;80
21.01.1959;81
22.01.1959;78
23.01.1959;76
24.01.1959;83
25.01.1959;94
26.01.1959;96
27.01.1959;101
28.01.1959;104
29.01.1959;99
30.01.1959;99
31.01.1959;101
01.02.1959;100
02.02.1959;100
03.02.1959;100
04.02.1959;100
05.02.1959;98
06.02.1959;100
07.02.1959;99
08.02.1959;101
09.02.1959;100
10.02.1959;100
11.02.1959;96
12.02.1959;98
13.02.1959;97
14.02.1959;96
15.02.1959;95
16.02.1959;96
17.02.1959;94
18.02.1959;93
19.02.1959;94
20.02.1959;92
21.02.1959;93
22.02.1959;92
23.02.1959;91
24.02.1959;89
25.02.1959;90
26.02.1959;90
27.02.1959;94
28.02.1959;92
01.03.1959;102
02.03.1959;107
03.03.1959;117
04.03.1959;119
05.03.1959;120
06.03.1959;122
07.03.1959;121
08.03.1959;118
09.03.1959;128
10.03.1959;133
11.03.1959;127
12.03.1959;130
13.03.1959;132
14.03.1959;126
15.03.1959;117
16.03.1959;117
17.03.1959;112
18.03.1959;109
19.03.1959;106
20.03.1959;108
21.03.1959;106
22.03.1959;106
23.03.1959;117
24.03.1959;130
25.03.1959;156
26.03.1959;186
27.03.1959;224
28.03.1959;238
29.03.1959;256
30.03.1959;254
31.03.1959;244
01.04.1959;230
02.04.1959;234
03.04.1959;235
04.04.1959;252
05.04.1959;270
06.04.1959;280
07.04.1959;286
08.04.1959;300
09.04.1959;327
10.04.1959;321
11.04.1959;360
12.04.1959;415
13.04.1959;381
14.04.1959;323
15.04.1959;279
16.04.1959;258
17.04.1959;242
18.04.1959;228
19.04.1959;236
20.04.1959;218
21.04.1959;204
22.04.1959;192
23.04.1959;182
24.04.1959;173
25.04.1959;164
26.04.1959;158
27.04.1959;154
28.04.1959;149
29.04.1959;142
30.04.1959;135
01.05.1959;135
02.05.1959;133
03.05.1959;131
04.05.1959;129
05.05.1959;125
06.05.1959;126
07.05.1959;130
08.05.1959;124
09.05.1959;123
10.05.1959;122
11.05.1959;121
12.05.1959;117
13.05.1959;116
14.05.1959;116
15.05.1959;115
16.05.1959;114
17.05.1959;108
18.05.1959;106
19.05.1959;106
20.05.1959;107
21.05.1959;106
22.05.1959;103
23.05.1959;102
24.05.1959;101
25.05.1959;101
26.05.1959;106
27.05.1959;94
28.05.1959;101
29.05.1959;104
30.05.1959;104
31.05.1959;110
01.06.1959;98
02.06.1959;106
03.06.1959;99
04.06.1959;103
05.06.1959;99
06.06.1959;98
07.06.1959;104
08.06.1959;106
09.06.1959;104
10.06.1959;99
11.06.1959;96
12.06.1959;94
13.06.1959;93
14.06.1959;96
15.06.1959;93
16.06.1959;101
17.06.1959;100
18.06.1959;100
19.06.1959;92
20.06.1959;100
21.06.1959;82
22.06.1959;74
23.06.1959;76
24.06.1959;78
25.06.1959;78
26.06.1959;80
27.06.1959;84
28.06.1959;74
29.06.1959;81
30.06.1959;84
01.07.1959;76
02.07.1959;77
03.07.1959;77
04.07.1959;74
05.07.1959;78
06.07.1959;72
07.07.1959;70
08.07.1959;69
09.07.1959;68
10.07.1959;71
11.07.1959;66
12.07.1959;66
13.07.1959;66
14.07.1959;68
15.07.1959;68
16.07.1959;66
17.07.1959;65
18.07.1959;65
19.07.1959;57
20.07.1959;58
21.07.1959;55
22.07.1959;56
23.07.1959;55
24.07.1959;64
25.07.1959;60
26.07.1959;56
27.07.1959;55
28.07.1959;56
29.07.1959;55
30.07.1959;54
31.07.1959;54
01.08.1959;56
02.08.1959;54
03.08.1959;52
04.08.1959;62
05.08.1959;52
06.08.1959;51
07.08.1959;60
08.08.1959;52
09.08.1959;47
10.08.1959;54
11.08.1959;48
12.08.1959;56
13.08.1959;58
14.08.1959;45
15.08.1959;44
16.08.1959;42
17.08.1959;42
18.08.1959;42
19.08.1959;48
20.08.1959;46
21.08.1959;48
22.08.1959;50
23.08.1959;53
24.08.1959;52
25.08.1959;51
26.08.1959;44
27.08.1959;52
28.08.1959;52
29.08.1959;42
30.08.1959;52
31.08.1959;54
01.09.1959;53
02.09.1959;52
03.09.1959;52
04.09.1959;49
05.09.1959;47
06.09.1959;52
07.09.1959;52
08.09.1959;54
09.09.1959;52
10.09.1959;51
11.09.1959;51
12.09.1959;51
13.09.1959;48
14.09.1959;43
15.09.1959;42
16.09.1959;44
17.09.1959;50
18.09.1959;53
19.09.1959;56
20.09.1959;61
21.09.1959;64
22.09.1959;62
23.09.1959;64
24.09.1959;64
25.09.1959;68
26.09.1959;73
27.09.1959;74
28.09.1959;74
29.09.1959;72
30.09.1959;70
01.10.1959;72
02.10.1959;70
03.10.1959;69
04.10.1959;67
05.10.1959;66
06.10.1959;66
07.10.1959;66
08.10.1959;66
09.10.1959;65
10.10.1959;66
11.10.1959;66
12.10.1959;66
13.10.1959;66
14.10.1959;65
15.10.1959;65
16.10.1959;65
17.10.1959;65
18.10.1959;65
19.10.1959;54
20.10.1959;56
21.10.1959;68
22.10.1959;66
23.10.1959;65
24.10.1959;66
25.10.1959;65
26.10.1959;66
27.10.1959;68
28.10.1959;72
29.10.1959;77
30.10.1959;80
31.10.1959;78
01.11.1959;78
02.11.1959;76
03.11.1959;76
04.11.1959;75
05.11.1959;74
06.11.1959;73
07.11.1959;74
08.11.1959;79
09.11.1959;87
10.11.1959;94
11.11.1959;92
12.11.1959;90
13.11.1959;88
14.11.1959;84
15.11.1959;84
16.11.1959;80
17.11.1959;74
18.11.1959;72
19.11.1959;72
20.11.1959;72
21.11.1959;71
22.11.1959;72
23.11.1959;76
24.11.1959;96
25.11.1959;102
26.11.1959;100
27.11.1959;97
28.11.1959;88
29.11.1959;80
30.11.1959;80
01.12.1959;81
02.12.1959;80
03.12.1959;79
04.12.1959;78
05.12.1959;74
06.12.1959;81
07.12.1959;75
08.12.1959;71
09.12.1959;65
10.12.1959;76
11.12.1959;48
12.12.1959;30
13.12.1959;76
14.12.1959;89
15.12.1959;82
16.12.1959;73
17.12.1959;65
18.12.1959;64
19.12.1959;62
20.12.1959;61
21.12.1959;60
22.12.1959;60
23.12.1959;60
24.12.1959;58
25.12.1959;56
26.12.1959;58
27.12.1959;57
28.12.1959;56
29.12.1959;55
30.12.1959;55
31.12.1959;56
01.01.1960;56
02.01.1960;56
03.01.1960;57
04.01.1960;56
05.01.1960;56
06.01.1960;56
07.01.1960;56
08.01.1960;56
09.01.1960;57
10.01.1960;56
11.01.1960;56
12.01.1960;56
13.01.1960;60
14.01.1960;62
15.01.1960;62
16.01.1960;60
17.01.1960;57
18.01.1960;57
19.01.1960;56
20.01.1960;56
21.01.1960;56
22.01.1960;56
23.01.1960;56
24.01.1960;56
25.01.1960;56
26.01.1960;56
27.01.1960;56
28.01.1960;57
29.01.1960;58
30.01.1960;60
31.01.1960;60
01.02.1960;60
02.02.1960;60
03.02.1960;61
04.02.1960;61
05.02.1960;61
06.02.1960;61
07.02.1960;60
08.02.1960;59
09.02.1960;58
10.02.1960;58
11.02.1960;57
12.02.1960;57
13.02.1960;58
14.02.1960;60
15.02.1960;59
16.02.1960;58
17.02.1960;58
18.02.1960;58
19.02.1960;57
20.02.1960;57
21.02.1960;56
22.02.1960;56
23.02.1960;56
24.02.1960;56
25.02.1960;57
26.02.1960;58
27.02.1960;58
28.02.1960;58
29.02.1960;59
01.03.1960;60
02.03.1960;61
03.03.1960;67
04.03.1960;60
05.03.1960;58
06.03.1960;58
07.03.1960;58
08.03.1960;59
09.03.1960;59
10.03.1960;58
11.03.1960;58
12.03.1960;58
13.03.1960;58
14.03.1960;58
15.03.1960;58
16.03.1960;58
17.03.1960;58
18.03.1960;56
19.03.1960;56
20.03.1960;55
21.03.1960;55
22.03.1960;55
23.03.1960;54
24.03.1960;54
25.03.1960;54
26.03.1960;54
27.03.1960;55
28.03.1960;55
29.03.1960;55
30.03.1960;54
31.03.1960;54
01.04.1960;55
02.04.1960;58
03.04.1960;62
04.04.1960;59
05.04.1960;58
06.04.1960;57